Time,TemperatureF,DewpointF,PressureIn,WindDirection,WindDirectionDegrees,WindSpeedMPH,WindSpeedGustMPH,Humidity,HourlyPrecipIn,Conditions,Clouds,dailyrainin,SoftwareType,DateUTC
2013-06-01 00:01:00,68.0,67.1,29.92,SW,225,9.0,17.0,97,0.01,,,0.31,meteohub,2013-06-01 04:01:00,
2013-06-01 00:02:00,67.8,66.9,29.92,SSW,213,6.0,17.0,97,0.01,,,0.31,meteohub,2013-06-01 04:02:00,
2013-06-01 00:07:00,67.5,66.9,29.91,WSW,237,5.0,17.0,98,0.08,,,0.02,meteohub,2013-06-01 04:07:00,
2013-06-01 00:12:00,67.5,67.1,29.91,SSW,207,9.0,17.0,99,0.09,,,0.03,meteohub,2013-06-01 04:12:00,
2013-06-01 00:17:00,67.3,66.9,29.91,South,182,3.0,13.0,99,0.09,,,0.03,meteohub,2013-06-01 04:17:00,
2013-06-01 00:22:00,67.3,66.9,29.91,SW,224,4.0,12.0,99,0.10,,,0.04,meteohub,2013-06-01 04:22:00,
2013-06-01 00:27:00,67.3,66.9,29.91,South,190,3.0,12.0,99,0.10,,,0.04,meteohub,2013-06-01 04:27:00,
2013-06-01 00:32:00,67.3,66.9,29.91,South,180,4.0,9.0,99,0.10,,,0.04,meteohub,2013-06-01 04:32:00,
2013-06-01 00:37:00,67.3,66.9,29.90,SSE,158,4.0,8.0,99,0.10,,,0.04,meteohub,2013-06-01 04:37:00,
2013-06-01 00:42:00,67.3,66.9,29.89,SSE,161,1.0,9.0,99,0.11,,,0.05,meteohub,2013-06-01 04:42:00,
2013-06-01 00:47:00,67.3,66.9,29.89,SSE,155,2.0,9.0,99,0.11,,,0.05,meteohub,2013-06-01 04:47:00,
2013-06-01 00:52:00,67.5,67.1,29.88,South,180,4.0,9.0,99,0.11,,,0.05,meteohub,2013-06-01 04:52:00,
2013-06-01 00:57:00,67.6,67.3,29.88,SSE,162,7.0,9.0,99,0.11,,,0.05,meteohub,2013-06-01 04:57:00,
2013-06-01 01:02:00,67.8,67.5,29.87,SSW,193,5.0,10.0,99,0.05,,,0.05,meteohub,2013-06-01 05:02:00,
2013-06-01 01:07:00,68.2,67.6,29.87,SSE,162,12.0,13.0,98,0.03,,,0.06,meteohub,2013-06-01 05:07:00,
2013-06-01 01:12:00,68.4,67.5,29.86,SSW,195,11.0,15.0,97,0.03,,,0.06,meteohub,2013-06-01 05:12:00,
2013-06-01 01:18:00,68.7,67.5,29.86,SSW,213,13.0,18.0,96,0.02,,,0.06,meteohub,2013-06-01 05:18:00,
2013-06-01 01:23:00,68.9,67.6,29.86,SSW,213,7.0,18.0,96,0.02,,,0.06,meteohub,2013-06-01 05:23:00,
2013-06-01 01:28:00,69.3,68.0,29.86,SW,216,14.0,19.0,96,0.02,,,0.06,meteohub,2013-06-01 05:28:00,
2013-06-01 01:33:00,69.3,67.8,29.88,West,261,17.0,19.0,95,0.02,,,0.06,meteohub,2013-06-01 05:33:00,
2013-06-01 01:38:00,69.1,67.8,29.88,SW,233,15.0,22.0,96,0.01,,,0.06,meteohub,2013-06-01 05:38:00,
2013-06-01 01:43:00,68.9,67.6,29.88,SW,215,12.0,22.0,96,0.01,,,0.06,meteohub,2013-06-01 05:43:00,
2013-06-01 01:48:00,68.7,67.8,29.88,SSW,209,11.0,22.0,97,0.01,,,0.06,meteohub,2013-06-01 05:48:00,
2013-06-01 01:53:00,68.9,68.0,29.88,SW,228,12.0,17.0,97,0.02,,,0.07,meteohub,2013-06-01 05:53:00,
2013-06-01 01:58:00,69.1,68.2,29.88,SSW,202,9.0,17.0,97,0.02,,,0.07,meteohub,2013-06-01 05:58:00,
2013-06-01 02:03:00,69.1,68.2,29.87,SW,216,10.0,17.0,97,0.01,,,0.07,meteohub,2013-06-01 06:03:00,
2013-06-01 02:08:00,69.3,68.0,29.87,SSW,205,7.0,17.0,96,0.01,,,0.07,meteohub,2013-06-01 06:08:00,
2013-06-01 02:13:00,69.3,68.0,29.86,SSW,201,5.0,17.0,96,0.02,,,0.08,meteohub,2013-06-01 06:13:00,
2013-06-01 02:18:00,69.3,68.0,29.86,WSW,237,7.0,17.0,96,0.02,,,0.08,meteohub,2013-06-01 06:18:00,
2013-06-01 02:23:00,69.3,68.0,29.85,SW,222,5.0,16.0,96,0.02,,,0.08,meteohub,2013-06-01 06:23:00,
2013-06-01 02:28:00,69.3,68.0,29.85,SW,228,6.0,16.0,96,0.02,,,0.08,meteohub,2013-06-01 06:28:00,
2013-06-01 02:33:00,69.4,68.2,29.85,SSW,204,5.0,13.0,96,0.02,,,0.08,meteohub,2013-06-01 06:33:00,
2013-06-01 02:38:00,69.4,68.2,29.84,SW,230,9.0,13.0,96,0.02,,,0.08,meteohub,2013-06-01 06:38:00,
2013-06-01 02:43:00,69.6,68.4,29.84,SW,224,6.0,13.0,96,0.02,,,0.08,meteohub,2013-06-01 06:43:00,
2013-06-01 02:48:00,69.4,68.0,29.84,SSW,194,10.0,14.0,95,0.01,,,0.08,meteohub,2013-06-01 06:48:00,
2013-06-01 02:53:00,69.6,68.2,29.84,South,189,14.0,14.0,95,0.01,,,0.08,meteohub,2013-06-01 06:53:00,
2013-06-01 02:58:00,69.6,68.2,29.84,SSW,198,13.0,15.0,95,0.01,,,0.08,meteohub,2013-06-01 06:58:00,
2013-06-01 03:03:00,69.8,68.4,29.83,SSW,209,6.0,20.0,95,0.01,,,0.08,meteohub,2013-06-01 07:03:00,
2013-06-01 03:08:00,70.0,68.2,29.83,SSW,197,11.0,20.0,94,0.01,,,0.08,meteohub,2013-06-01 07:08:00,
2013-06-01 03:14:00,70.0,68.2,29.83,SW,229,10.0,20.0,94,0.00,,,0.08,meteohub,2013-06-01 07:14:00,
2013-06-01 03:19:00,70.2,68.4,29.83,SSW,211,9.0,20.0,94,0.00,,,0.08,meteohub,2013-06-01 07:19:00,
2013-06-01 03:24:00,70.0,68.2,29.83,SSW,202,12.0,20.0,94,0.00,,,0.08,meteohub,2013-06-01 07:24:00,
2013-06-01 03:29:00,70.0,68.2,29.83,South,182,9.0,20.0,94,0.00,,,0.08,meteohub,2013-06-01 07:29:00,
2013-06-01 03:34:00,70.0,68.2,29.83,SSW,210,8.0,16.0,94,0.00,,,0.08,meteohub,2013-06-01 07:34:00,
2013-06-01 03:39:00,70.2,68.0,29.83,SW,214,11.0,17.0,93,0.00,,,0.08,meteohub,2013-06-01 07:39:00,
2013-06-01 03:44:00,70.3,68.2,29.83,South,188,14.0,19.0,93,0.00,,,0.08,meteohub,2013-06-01 07:44:00,
2013-06-01 03:49:00,70.5,68.0,29.83,SSW,203,11.0,19.0,92,0.00,,,0.08,meteohub,2013-06-01 07:49:00,
2013-06-01 03:54:00,70.5,68.0,29.82,SSW,211,9.0,17.0,92,0.00,,,0.08,meteohub,2013-06-01 07:54:00,
2013-06-01 03:59:00,70.5,68.0,29.82,South,184,15.0,20.0,92,0.00,,,0.08,meteohub,2013-06-01 07:59:00,
2013-06-01 04:04:00,70.5,68.0,29.82,SSW,199,15.0,20.0,92,0.00,,,0.08,meteohub,2013-06-01 08:04:00,
2013-06-01 04:09:00,70.5,68.0,29.82,SSW,194,5.0,20.0,92,0.00,,,0.08,meteohub,2013-06-01 08:09:00,
2013-06-01 04:14:00,70.5,68.0,29.82,SSW,194,7.0,18.0,92,0.00,,,0.08,meteohub,2013-06-01 08:14:00,
2013-06-01 04:19:00,70.5,68.0,29.82,South,175,9.0,15.0,92,0.00,,,0.08,meteohub,2013-06-01 08:19:00,
2013-06-01 04:24:00,70.7,68.2,29.82,SSW,207,7.0,14.0,92,0.00,,,0.08,meteohub,2013-06-01 08:24:00,
2013-06-01 04:29:00,70.5,68.0,29.82,SSE,165,13.0,15.0,92,0.00,,,0.08,meteohub,2013-06-01 08:29:00,
2013-06-01 04:34:00,70.9,68.4,29.82,SSW,213,11.0,15.0,92,0.00,,,0.08,meteohub,2013-06-01 08:34:00,
2013-06-01 04:39:00,70.7,68.2,29.82,SSW,211,7.0,17.0,92,0.00,,,0.08,meteohub,2013-06-01 08:39:00,
2013-06-01 04:44:00,70.9,68.2,29.82,SSW,210,16.0,17.0,91,0.00,,,0.08,meteohub,2013-06-01 08:44:00,
2013-06-01 04:49:00,71.4,68.4,29.82,SSW,192,9.0,17.0,90,0.00,,,0.08,meteohub,2013-06-01 08:49:00,
2013-06-01 04:54:00,71.6,68.5,29.81,SW,218,9.0,21.0,90,0.00,,,0.08,meteohub,2013-06-01 08:54:00,
2013-06-01 04:59:00,71.4,68.0,29.82,South,191,15.0,21.0,89,0.00,,,0.08,meteohub,2013-06-01 08:59:00,
2013-06-01 05:04:00,71.4,68.4,29.82,SSW,207,13.0,21.0,90,0.00,,,0.08,meteohub,2013-06-01 09:04:00,
2013-06-01 05:10:00,71.6,68.2,29.82,South,182,10.0,19.0,89,0.00,,,0.08,meteohub,2013-06-01 09:10:00,
2013-06-01 05:15:00,71.6,68.2,29.82,South,191,12.0,19.0,89,0.00,,,0.08,meteohub,2013-06-01 09:15:00,
2013-06-01 05:20:00,71.8,68.4,29.82,South,190,12.0,21.0,89,0.00,,,0.08,meteohub,2013-06-01 09:20:00,
2013-06-01 05:25:00,71.8,68.4,29.82,South,185,13.0,21.0,89,0.00,,,0.08,meteohub,2013-06-01 09:25:00,
2013-06-01 05:30:00,72.0,68.2,29.82,SSW,207,15.0,21.0,88,0.00,,,0.08,meteohub,2013-06-01 09:30:00,
2013-06-01 05:35:00,72.1,68.4,29.82,South,186,12.0,18.0,88,0.00,,,0.08,meteohub,2013-06-01 09:35:00,
2013-06-01 05:40:00,72.1,68.0,29.82,South,188,8.0,22.0,87,0.00,,,0.08,meteohub,2013-06-01 09:40:00,
2013-06-01 05:45:00,72.1,68.0,29.82,SSW,192,9.0,23.0,87,0.00,,,0.08,meteohub,2013-06-01 09:45:00,
2013-06-01 05:50:00,72.0,68.2,29.82,South,187,13.0,25.0,88,0.00,,,0.08,meteohub,2013-06-01 09:50:00,
2013-06-01 05:55:00,72.0,68.2,29.81,SSW,206,12.0,25.0,88,0.00,,,0.08,meteohub,2013-06-01 09:55:00,
2013-06-01 06:00:00,71.6,67.8,29.81,SSW,192,14.0,20.0,88,0.00,,,0.08,meteohub,2013-06-01 10:00:00,
2013-06-01 06:05:00,71.4,67.6,29.81,SSW,197,20.0,24.0,88,0.00,,,0.08,meteohub,2013-06-01 10:05:00,
2013-06-01 06:10:00,71.2,67.8,29.81,SW,221,22.0,24.0,89,0.00,,,0.08,meteohub,2013-06-01 10:10:00,
2013-06-01 06:15:00,71.8,68.0,29.81,SSW,202,23.0,24.0,88,0.00,,,0.08,meteohub,2013-06-01 10:15:00,
2013-06-01 06:20:00,72.7,68.2,29.81,SW,215,23.0,37.0,86,0.00,,,0.08,meteohub,2013-06-01 10:20:00,
2013-06-01 06:25:00,72.7,68.2,29.81,South,174,24.0,37.0,86,0.00,,,0.08,meteohub,2013-06-01 10:25:00,
2013-06-01 06:30:00,72.7,68.2,29.81,South,173,7.0,32.0,86,0.00,,,0.08,meteohub,2013-06-01 10:30:00,
2013-06-01 06:35:00,72.7,68.5,29.80,SSW,206,16.0,30.0,87,0.00,,,0.08,meteohub,2013-06-01 10:35:00,
2013-06-01 06:40:00,72.5,68.4,29.80,SSW,197,14.0,30.0,87,0.00,,,0.08,meteohub,2013-06-01 10:40:00,
2013-06-01 06:45:00,72.7,68.2,29.80,SSW,205,14.0,28.0,86,0.00,,,0.08,meteohub,2013-06-01 10:45:00,
2013-06-01 06:50:00,72.9,68.4,29.81,SSW,211,15.0,28.0,86,0.00,,,0.08,meteohub,2013-06-01 10:50:00,
2013-06-01 06:55:00,72.9,68.4,29.81,WSW,240,21.0,26.0,86,0.00,,,0.08,meteohub,2013-06-01 10:55:00,
2013-06-01 07:00:00,73.0,68.5,29.81,SW,223,14.0,28.0,86,0.00,,,0.08,meteohub,2013-06-01 11:00:00,
2013-06-01 07:05:00,73.2,68.7,29.81,SW,228,20.0,30.0,86,0.00,,,0.08,meteohub,2013-06-01 11:05:00,
2013-06-01 07:10:00,73.6,68.7,29.82,SW,215,20.0,30.0,85,0.00,,,0.08,meteohub,2013-06-01 11:10:00,
2013-06-01 07:15:00,73.8,68.9,29.82,WSW,246,15.0,32.0,85,0.00,,,0.08,meteohub,2013-06-01 11:15:00,
2013-06-01 07:21:00,73.9,69.1,29.82,SSW,196,21.0,32.0,85,0.00,,,0.08,meteohub,2013-06-01 11:21:00,
2013-06-01 07:26:00,73.9,69.1,29.82,SSW,203,16.0,30.0,85,0.00,,,0.08,meteohub,2013-06-01 11:26:00,
2013-06-01 07:31:00,73.9,68.7,29.82,SW,219,23.0,30.0,84,0.00,,,0.08,meteohub,2013-06-01 11:31:00,
2013-06-01 07:36:00,74.1,68.9,29.83,SW,218,14.0,28.0,84,0.00,,,0.08,meteohub,2013-06-01 11:36:00,
2013-06-01 07:41:00,74.1,68.9,29.83,SW,231,22.0,28.0,84,0.00,,,0.08,meteohub,2013-06-01 11:41:00,
2013-06-01 07:46:00,74.1,68.9,29.83,South,189,23.0,28.0,84,0.00,,,0.08,meteohub,2013-06-01 11:46:00,
2013-06-01 07:51:00,74.1,68.9,29.83,South,190,18.0,29.0,84,0.00,,,0.08,meteohub,2013-06-01 11:51:00,
2013-06-01 07:56:00,74.1,69.3,29.83,SSW,202,15.0,29.0,85,0.00,,,0.08,meteohub,2013-06-01 11:56:00,
2013-06-01 08:01:00,74.1,69.3,29.83,SW,234,28.0,29.0,85,0.00,,,0.08,meteohub,2013-06-01 12:01:00,
2013-06-01 08:06:00,73.9,69.1,29.82,SW,223,19.0,29.0,85,0.00,,,0.08,meteohub,2013-06-01 12:06:00,
2013-06-01 08:11:00,73.9,69.1,29.83,South,170,14.0,29.0,85,0.00,,,0.08,meteohub,2013-06-01 12:11:00,
2013-06-01 08:16:00,74.1,69.3,29.82,SSW,213,22.0,29.0,85,0.00,,,0.08,meteohub,2013-06-01 12:16:00,
2013-06-01 08:21:00,74.3,69.4,29.82,SW,221,11.0,25.0,85,0.00,,,0.08,meteohub,2013-06-01 12:21:00,
2013-06-01 08:26:00,74.5,69.6,29.82,SSW,209,11.0,23.0,85,0.00,,,0.08,meteohub,2013-06-01 12:26:00,
2013-06-01 08:31:00,74.5,69.6,29.83,SSW,209,20.0,22.0,85,0.00,,,0.08,meteohub,2013-06-01 12:31:00,
2013-06-01 08:36:00,74.7,69.8,29.82,SSW,192,8.0,22.0,85,0.00,,,0.08,meteohub,2013-06-01 12:36:00,
2013-06-01 08:41:00,74.8,70.0,29.83,SW,227,5.0,20.0,85,0.00,,,0.08,meteohub,2013-06-01 12:41:00,
2013-06-01 08:46:00,74.8,69.6,29.83,SW,225,17.0,20.0,84,0.00,,,0.08,meteohub,2013-06-01 12:46:00,
2013-06-01 08:51:00,74.8,69.6,29.82,South,181,14.0,20.0,84,0.00,,,0.08,meteohub,2013-06-01 12:51:00,
2013-06-01 08:56:00,74.8,69.6,29.81,SSW,202,17.0,20.0,84,0.00,,,0.08,meteohub,2013-06-01 12:56:00,
2013-06-01 09:01:00,75.0,69.8,29.81,South,175,15.0,28.0,84,0.00,,,0.08,meteohub,2013-06-01 13:01:00,
2013-06-01 09:06:00,75.4,69.8,29.81,SSW,209,7.0,28.0,83,0.00,,,0.08,meteohub,2013-06-01 13:06:00,
2013-06-01 09:11:00,75.6,70.0,29.81,SSW,198,16.0,23.0,83,0.00,,,0.08,meteohub,2013-06-01 13:11:00,
2013-06-01 09:17:00,75.6,70.0,29.81,SW,222,16.0,21.0,83,0.00,,,0.08,meteohub,2013-06-01 13:17:00,
2013-06-01 09:22:00,75.7,70.2,29.81,SW,226,11.0,21.0,83,0.00,,,0.08,meteohub,2013-06-01 13:22:00,
2013-06-01 09:27:00,75.9,70.0,29.81,SSW,195,20.0,21.0,82,0.00,,,0.08,meteohub,2013-06-01 13:27:00,
2013-06-01 09:32:00,76.1,70.2,29.81,SSW,211,17.0,27.0,82,0.00,,,0.08,meteohub,2013-06-01 13:32:00,
2013-06-01 09:37:00,76.3,70.3,29.81,SSW,202,13.0,27.0,82,0.00,,,0.08,meteohub,2013-06-01 13:37:00,
2013-06-01 09:42:00,76.5,70.2,29.80,WSW,237,13.0,27.0,81,0.00,,,0.08,meteohub,2013-06-01 13:42:00,
2013-06-01 09:47:00,76.5,70.2,29.80,SW,230,7.0,21.0,81,0.00,,,0.08,meteohub,2013-06-01 13:47:00,
2013-06-01 09:52:00,76.6,70.3,29.80,SSW,202,11.0,21.0,81,0.00,,,0.08,meteohub,2013-06-01 13:52:00,
2013-06-01 09:57:00,76.8,70.5,29.79,SW,227,19.0,20.0,81,0.00,,,0.08,meteohub,2013-06-01 13:57:00,
2013-06-01 10:02:00,76.8,70.5,29.80,SSW,196,14.0,26.0,81,0.00,,,0.08,meteohub,2013-06-01 14:02:00,
2013-06-01 10:07:00,77.2,70.9,29.79,SW,220,7.0,26.0,81,0.00,,,0.08,meteohub,2013-06-01 14:07:00,
2013-06-01 10:12:00,77.4,71.1,29.80,SW,227,18.0,26.0,81,0.00,,,0.08,meteohub,2013-06-01 14:12:00,
2013-06-01 10:17:00,77.5,71.2,29.79,SSW,207,11.0,21.0,81,0.00,,,0.08,meteohub,2013-06-01 14:17:00,
2013-06-01 10:22:00,77.7,71.1,29.79,WSW,242,14.0,20.0,80,0.00,,,0.08,meteohub,2013-06-01 14:22:00,
2013-06-01 10:27:00,78.1,71.1,29.79,WSW,239,14.0,23.0,79,0.00,,,0.08,meteohub,2013-06-01 14:27:00,
2013-06-01 10:32:00,78.3,71.2,29.79,SSW,202,12.0,23.0,79,0.00,,,0.08,meteohub,2013-06-01 14:32:00,
2013-06-01 10:37:00,78.4,71.4,29.78,SW,217,13.0,25.0,79,0.00,,,0.08,meteohub,2013-06-01 14:37:00,
2013-06-01 10:42:00,78.6,71.6,29.78,SW,217,23.0,27.0,79,0.00,,,0.08,meteohub,2013-06-01 14:42:00,
2013-06-01 10:47:00,78.6,71.2,29.78,SSW,196,21.0,29.0,78,0.00,,,0.08,meteohub,2013-06-01 14:47:00,
2013-06-01 10:52:00,78.6,71.2,29.78,SW,228,22.0,29.0,78,0.00,,,0.08,meteohub,2013-06-01 14:52:00,
2013-06-01 10:57:00,79.0,71.6,29.78,South,173,14.0,29.0,78,0.00,,,0.08,meteohub,2013-06-01 14:57:00,
2013-06-01 11:02:00,79.2,71.8,29.78,WSW,239,11.0,29.0,78,0.00,,,0.08,meteohub,2013-06-01 15:02:00,
2013-06-01 11:07:00,79.3,72.0,29.78,SW,222,21.0,29.0,78,0.00,,,0.08,meteohub,2013-06-01 15:07:00,
2013-06-01 11:12:00,79.3,72.0,29.78,SSW,213,7.0,27.0,78,0.00,,,0.08,meteohub,2013-06-01 15:12:00,
2013-06-01 11:17:00,79.5,72.1,29.78,West,259,21.0,27.0,78,0.00,,,0.08,meteohub,2013-06-01 15:17:00,
2013-06-01 11:22:00,79.9,72.3,29.77,WSW,238,18.0,28.0,78,0.00,,,0.08,meteohub,2013-06-01 15:22:00,
2013-06-01 11:27:00,79.5,72.1,29.77,WSW,245,22.0,28.0,78,0.00,,,0.08,meteohub,2013-06-01 15:27:00,
2013-06-01 11:32:00,79.5,72.1,29.78,SW,217,11.0,28.0,78,0.00,,,0.08,meteohub,2013-06-01 15:32:00,
2013-06-01 11:37:00,80.1,72.1,29.78,SW,229,19.0,27.0,77,0.00,,,0.08,meteohub,2013-06-01 15:37:00,
2013-06-01 11:42:00,80.2,72.3,29.78,SW,227,13.0,27.0,77,0.00,,,0.08,meteohub,2013-06-01 15:42:00,
2013-06-01 11:47:00,80.4,72.9,29.78,SW,224,18.0,26.0,78,0.00,,,0.08,meteohub,2013-06-01 15:47:00,
2013-06-01 11:52:00,80.6,72.7,29.78,SW,217,17.0,23.0,77,0.00,,,0.08,meteohub,2013-06-01 15:52:00,
2013-06-01 11:57:00,80.6,72.7,29.78,WSW,238,10.0,29.0,77,0.00,,,0.08,meteohub,2013-06-01 15:57:00,
2013-06-01 12:02:00,80.8,72.9,29.78,SW,225,14.0,29.0,77,0.00,,,0.08,meteohub,2013-06-01 16:02:00,
2013-06-01 12:07:00,80.4,72.5,29.78,SW,229,10.0,29.0,77,0.00,,,0.08,meteohub,2013-06-01 16:07:00,
2013-06-01 12:12:00,80.8,72.9,29.77,WSW,237,11.0,27.0,77,0.00,,,0.08,meteohub,2013-06-01 16:12:00,
2013-06-01 12:17:00,81.1,73.2,29.77,SW,232,24.0,24.0,77,0.00,,,0.08,meteohub,2013-06-01 16:17:00,
2013-06-01 12:22:00,81.1,72.9,29.77,SW,225,18.0,27.0,76,0.00,,,0.08,meteohub,2013-06-01 16:22:00,
2013-06-01 12:27:00,81.3,73.0,29.76,SW,236,28.0,29.0,76,0.00,,,0.08,meteohub,2013-06-01 16:27:00,
2013-06-01 12:32:00,81.3,72.7,29.76,SW,219,28.0,29.0,75,0.00,,,0.08,meteohub,2013-06-01 16:32:00,
2013-06-01 12:37:00,81.3,73.0,29.76,WSW,240,28.0,34.0,76,0.00,,,0.08,meteohub,2013-06-01 16:37:00,
2013-06-01 12:42:00,81.5,72.9,29.76,SW,214,20.0,34.0,75,0.00,,,0.08,meteohub,2013-06-01 16:42:00,
2013-06-01 12:47:00,81.5,72.9,29.76,SW,224,27.0,34.0,75,0.00,,,0.08,meteohub,2013-06-01 16:47:00,
2013-06-01 12:52:00,81.5,72.9,29.76,WSW,245,18.0,31.0,75,0.00,,,0.08,meteohub,2013-06-01 16:52:00,
2013-06-01 12:57:00,81.7,73.0,29.76,SSW,205,19.0,32.0,75,0.00,,,0.08,meteohub,2013-06-01 16:57:00,
2013-06-01 13:03:00,81.9,73.2,29.75,SW,223,22.0,32.0,75,0.00,,,0.08,meteohub,2013-06-01 17:03:00,
2013-06-01 13:08:00,82.0,72.9,29.75,SW,234,23.0,32.0,74,0.00,,,0.08,meteohub,2013-06-01 17:08:00,
2013-06-01 13:13:00,82.2,73.0,29.75,SW,235,16.0,34.0,74,0.00,,,0.08,meteohub,2013-06-01 17:13:00,
2013-06-01 13:18:00,82.2,72.7,29.75,SW,221,11.0,34.0,73,0.00,,,0.08,meteohub,2013-06-01 17:18:00,
2013-06-01 13:23:00,82.6,73.0,29.75,SW,219,17.0,34.0,73,0.00,,,0.08,meteohub,2013-06-01 17:23:00,
2013-06-01 13:28:00,82.2,72.7,29.75,South,186,28.0,33.0,73,0.00,,,0.08,meteohub,2013-06-01 17:28:00,
2013-06-01 13:33:00,82.6,73.4,29.75,WSW,238,22.0,33.0,74,0.00,,,0.08,meteohub,2013-06-01 17:33:00,
2013-06-01 13:38:00,82.8,73.2,29.75,WSW,238,20.0,33.0,73,0.00,,,0.08,meteohub,2013-06-01 17:38:00,
2013-06-01 13:43:00,82.9,73.0,29.75,SW,233,17.0,29.0,72,0.00,,,0.08,meteohub,2013-06-01 17:43:00,
2013-06-01 13:48:00,83.3,73.8,29.75,SSW,211,19.0,33.0,73,0.00,,,0.08,meteohub,2013-06-01 17:48:00,
2013-06-01 13:53:00,83.7,73.6,29.75,SW,229,21.0,33.0,72,0.00,,,0.08,meteohub,2013-06-01 17:53:00,
2013-06-01 13:58:00,83.5,73.0,29.75,WSW,240,15.0,33.0,71,0.00,,,0.08,meteohub,2013-06-01 17:58:00,
2013-06-01 14:04:00,83.5,73.0,29.75,SSW,202,24.0,35.0,71,0.00,,,0.08,meteohub,2013-06-01 18:04:00,
2013-06-01 14:08:00,83.3,72.5,29.75,SW,217,32.0,35.0,70,0.00,,,0.08,meteohub,2013-06-01 18:08:00,
2013-06-01 14:14:00,83.1,72.7,29.75,WSW,241,22.0,35.0,71,0.00,,,0.08,meteohub,2013-06-01 18:14:00,
2013-06-01 14:19:00,82.9,73.0,29.75,SW,228,15.0,36.0,72,0.00,,,0.08,meteohub,2013-06-01 18:19:00,
2013-06-01 14:24:00,83.5,73.6,29.75,SSW,203,15.0,36.0,72,0.00,,,0.08,meteohub,2013-06-01 18:24:00,
2013-06-01 14:29:00,83.5,73.6,29.74,SW,231,19.0,28.0,72,0.00,,,0.08,meteohub,2013-06-01 18:29:00,
2013-06-01 14:34:00,83.7,74.1,29.74,SW,227,11.0,29.0,73,0.00,,,0.08,meteohub,2013-06-01 18:34:00,
2013-06-01 14:39:00,84.0,73.6,29.73,SW,215,10.0,29.0,71,0.00,,,0.08,meteohub,2013-06-01 18:39:00,
2013-06-01 14:44:00,84.4,73.6,29.73,South,186,15.0,29.0,70,0.00,,,0.08,meteohub,2013-06-01 18:44:00,
2013-06-01 14:49:00,84.6,73.8,29.73,SW,223,17.0,33.0,70,0.00,,,0.08,meteohub,2013-06-01 18:49:00,
2013-06-01 14:54:00,84.7,73.4,29.73,SW,223,26.0,33.0,69,0.00,,,0.08,meteohub,2013-06-01 18:54:00,
2013-06-01 14:59:00,84.9,72.7,29.72,SW,216,28.0,33.0,67,0.00,,,0.08,meteohub,2013-06-01 18:59:00,
2013-06-01 15:04:00,84.7,73.4,29.72,South,187,20.0,33.0,69,0.00,,,0.08,meteohub,2013-06-01 19:04:00,
2013-06-01 15:10:00,84.7,73.4,29.73,SW,233,27.0,33.0,69,0.00,,,0.08,meteohub,2013-06-01 19:10:00,
2013-06-01 15:15:00,84.6,73.2,29.73,WSW,238,16.0,33.0,69,0.00,,,0.08,meteohub,2013-06-01 19:15:00,
2013-06-01 15:20:00,84.6,73.2,29.73,WSW,252,23.0,30.0,69,0.00,,,0.08,meteohub,2013-06-01 19:20:00,
2013-06-01 15:25:00,84.6,73.2,29.73,SW,222,18.0,30.0,69,0.00,,,0.08,meteohub,2013-06-01 19:25:00,
2013-06-01 15:30:00,84.6,73.2,29.73,WSW,242,18.0,28.0,69,0.00,,,0.08,meteohub,2013-06-01 19:30:00,
2013-06-01 15:35:00,84.6,73.2,29.72,SW,227,24.0,28.0,69,0.00,,,0.08,meteohub,2013-06-01 19:35:00,
2013-06-01 15:40:00,84.7,73.0,29.72,WSW,245,30.0,32.0,68,0.00,,,0.08,meteohub,2013-06-01 19:40:00,
2013-06-01 15:45:00,84.4,72.7,29.73,SW,233,14.0,35.0,68,0.00,,,0.08,meteohub,2013-06-01 19:45:00,
2013-06-01 15:50:00,84.4,73.0,29.73,WSW,253,26.0,35.0,69,0.00,,,0.08,meteohub,2013-06-01 19:50:00,
2013-06-01 15:55:00,84.4,73.0,29.72,SW,218,19.0,35.0,69,0.00,,,0.08,meteohub,2013-06-01 19:55:00,
2013-06-01 16:00:00,84.6,73.2,29.71,SW,231,19.0,31.0,69,0.00,,,0.08,meteohub,2013-06-01 20:00:00,
2013-06-01 16:06:00,84.6,73.2,29.71,SW,222,14.0,31.0,69,0.00,,,0.08,meteohub,2013-06-01 20:06:00,
2013-06-01 16:11:00,84.6,73.2,29.72,SW,232,19.0,30.0,69,0.00,,,0.08,meteohub,2013-06-01 20:11:00,
2013-06-01 16:16:00,84.7,73.4,29.71,WSW,237,19.0,30.0,69,0.00,,,0.08,meteohub,2013-06-01 20:16:00,
2013-06-01 16:21:00,84.7,73.0,29.71,SW,217,17.0,34.0,68,0.00,,,0.08,meteohub,2013-06-01 20:21:00,
2013-06-01 16:26:00,84.6,73.2,29.72,WSW,238,25.0,34.0,69,0.00,,,0.08,meteohub,2013-06-01 20:26:00,
2013-06-01 16:31:00,84.4,73.0,29.72,WSW,245,16.0,34.0,69,0.00,,,0.08,meteohub,2013-06-01 20:31:00,
2013-06-01 16:36:00,84.0,73.6,29.72,WSW,251,14.0,34.0,71,0.00,,,0.08,meteohub,2013-06-01 20:36:00,
2013-06-01 16:41:00,82.6,70.9,29.73,WNW,287,20.0,31.0,68,0.00,,,0.08,meteohub,2013-06-01 20:41:00,
2013-06-01 16:46:00,74.7,67.3,29.74,WNW,290,17.0,29.0,78,0.00,,,0.08,meteohub,2013-06-01 20:46:00,
2013-06-01 16:51:00,72.0,67.5,29.74,West,277,18.0,29.0,86,0.00,,,0.08,meteohub,2013-06-01 20:51:00,
2013-06-01 16:56:00,71.2,67.1,29.75,West,271,16.0,22.0,87,0.00,,,0.08,meteohub,2013-06-01 20:56:00,
2013-06-01 17:01:00,70.2,66.4,29.75,West,263,19.0,26.0,88,0.00,,,0.08,meteohub,2013-06-01 21:01:00,
2013-06-01 17:07:00,69.6,66.2,29.75,West,267,17.0,26.0,89,0.00,,,0.08,meteohub,2013-06-01 21:07:00,
2013-06-01 17:12:00,69.1,66.0,29.75,West,277,15.0,24.0,90,0.00,,,0.08,meteohub,2013-06-01 21:12:00,
2013-06-01 17:17:00,68.5,65.8,29.75,West,264,13.0,24.0,91,0.00,,,0.08,meteohub,2013-06-01 21:17:00,
2013-06-01 17:22:00,68.5,66.2,29.75,West,266,14.0,19.0,92,0.00,,,0.08,meteohub,2013-06-01 21:22:00,
2013-06-01 17:27:00,68.5,66.2,29.75,West,265,11.0,19.0,92,0.00,,,0.08,meteohub,2013-06-01 21:27:00,
2013-06-01 17:32:00,68.7,66.4,29.75,WNW,286,13.0,16.0,92,0.00,,,0.08,meteohub,2013-06-01 21:32:00,
2013-06-01 17:37:00,68.7,66.6,29.75,West,269,12.0,17.0,93,0.00,,,0.08,meteohub,2013-06-01 21:37:00,
2013-06-01 17:42:00,68.4,66.2,29.76,West,277,22.0,22.0,93,0.00,,,0.08,meteohub,2013-06-01 21:42:00,
2013-06-01 17:47:00,67.6,66.7,29.75,WNW,289,17.0,28.0,97,0.16,,,0.24,meteohub,2013-06-01 21:47:00,
2013-06-01 17:52:00,67.8,67.3,29.75,WSW,246,11.0,28.0,98,0.24,,,0.32,meteohub,2013-06-01 21:52:00,
2013-06-01 17:57:00,67.6,67.1,29.75,WSW,257,6.0,28.0,98,0.24,,,0.32,meteohub,2013-06-01 21:57:00,
2013-06-01 18:02:00,67.5,67.1,29.75,WSW,252,6.0,24.0,99,0.24,,,0.32,meteohub,2013-06-01 22:02:00,
2013-06-01 18:07:00,67.8,67.3,29.76,West,274,10.0,13.0,98,0.24,,,0.32,meteohub,2013-06-01 22:07:00,
2013-06-01 18:12:00,68.2,67.3,29.75,West,267,10.0,15.0,97,0.24,,,0.32,meteohub,2013-06-01 22:12:00,
2013-06-01 18:17:00,68.4,67.1,29.75,West,263,13.0,15.0,96,0.24,,,0.32,meteohub,2013-06-01 22:17:00,
2013-06-01 18:22:00,68.4,66.9,29.75,WSW,258,14.0,15.0,95,0.24,,,0.32,meteohub,2013-06-01 22:22:00,
2013-06-01 18:27:00,68.5,67.1,29.75,WSW,258,13.0,16.0,95,0.24,,,0.32,meteohub,2013-06-01 22:27:00,
2013-06-01 18:32:00,68.7,67.3,29.75,West,261,6.0,16.0,95,0.24,,,0.32,meteohub,2013-06-01 22:32:00,
2013-06-01 18:37:00,68.7,67.5,29.75,SW,232,5.0,16.0,96,0.24,,,0.32,meteohub,2013-06-01 22:37:00,
2013-06-01 18:42:00,69.3,68.4,29.76,SW,229,10.0,14.0,97,0.25,,,0.33,meteohub,2013-06-01 22:42:00,
2013-06-01 18:47:00,69.6,68.7,29.75,SW,225,6.0,10.0,97,0.02,,,0.33,meteohub,2013-06-01 22:47:00,
2013-06-01 18:52:00,70.2,69.3,29.75,SW,236,3.0,10.0,97,0.01,,,0.33,meteohub,2013-06-01 22:52:00,
2013-06-01 18:57:00,70.7,69.4,29.75,SW,229,6.0,10.0,96,0.01,,,0.33,meteohub,2013-06-01 22:57:00,
2013-06-01 19:02:00,71.1,69.3,29.75,WSW,240,5.0,7.0,94,0.01,,,0.33,meteohub,2013-06-01 23:02:00,
2013-06-01 19:07:00,71.2,69.1,29.75,WSW,255,5.0,9.0,93,0.01,,,0.33,meteohub,2013-06-01 23:07:00,
2013-06-01 19:12:00,71.4,68.9,29.75,WSW,255,4.0,9.0,92,0.01,,,0.33,meteohub,2013-06-01 23:12:00,
2013-06-01 19:17:00,71.2,68.5,29.75,West,274,10.0,10.0,91,0.01,,,0.33,meteohub,2013-06-01 23:17:00,
2013-06-01 19:22:00,71.4,68.7,29.74,West,261,6.0,12.0,91,0.01,,,0.33,meteohub,2013-06-01 23:22:00,
2013-06-01 19:27:00,71.2,68.5,29.74,West,259,5.0,12.0,91,0.01,,,0.33,meteohub,2013-06-01 23:27:00,
2013-06-01 19:32:00,71.1,68.0,29.75,West,259,5.0,12.0,90,0.01,,,0.33,meteohub,2013-06-01 23:32:00,
2013-06-01 19:37:00,70.9,67.8,29.75,West,259,5.0,9.0,90,0.00,,,0.33,meteohub,2013-06-01 23:37:00,
2013-06-01 19:42:00,70.3,67.6,29.75,SW,232,12.0,12.0,91,0.01,,,0.34,meteohub,2013-06-01 23:42:00,
2013-06-01 19:47:00,69.6,67.3,29.75,WSW,237,7.0,12.0,92,0.03,,,0.36,meteohub,2013-06-01 23:47:00,
2013-06-01 19:52:00,69.1,66.9,29.76,WSW,238,12.0,12.0,93,0.11,,,0.44,meteohub,2013-06-01 23:52:00,
2013-06-01 19:57:00,68.5,66.4,29.75,SW,217,8.0,13.0,93,0.12,,,0.45,meteohub,2013-06-01 23:57:00,
2013-06-01 20:03:00,68.7,66.6,29.75,WSW,248,7.0,19.0,93,0.13,,,0.46,meteohub,2013-06-02 00:03:00,
2013-06-01 20:08:00,68.7,66.6,29.75,WSW,252,4.0,19.0,93,0.13,,,0.46,meteohub,2013-06-02 00:08:00,
2013-06-01 20:13:00,68.7,66.6,29.75,WSW,252,4.0,16.0,93,0.13,,,0.46,meteohub,2013-06-02 00:13:00,
2013-06-01 20:18:00,68.4,66.6,29.76,WSW,246,7.0,9.0,94,0.14,,,0.47,meteohub,2013-06-02 00:18:00,
2013-06-01 20:23:00,67.8,66.6,29.76,West,265,11.0,11.0,96,0.20,,,0.53,meteohub,2013-06-02 00:23:00,
2013-06-01 20:28:00,66.7,65.8,29.76,West,261,9.0,14.0,97,0.30,,,0.63,meteohub,2013-06-02 00:28:00,
2013-06-01 20:33:00,66.4,66.0,29.75,SW,233,4.0,19.0,99,0.36,,,0.69,meteohub,2013-06-02 00:33:00,
2013-06-01 20:38:00,66.2,65.8,29.74,SW,233,2.0,19.0,99,0.37,,,0.70,meteohub,2013-06-02 00:38:00,
2013-06-01 20:43:00,66.0,65.7,29.75,SW,234,4.0,19.0,99,0.35,,,0.70,meteohub,2013-06-02 00:43:00,
2013-06-01 20:48:00,66.0,65.7,29.75,SW,234,5.0,6.0,99,0.31,,,0.70,meteohub,2013-06-02 00:48:00,
2013-06-01 20:53:00,66.0,66.0,29.75,South,171,8.0,8.0,100,0.26,,,0.71,meteohub,2013-06-02 00:53:00,
2013-06-01 20:58:00,66.4,66.4,29.75,SSE,166,6.0,8.0,100,0.26,,,0.72,meteohub,2013-06-02 00:58:00,
2013-06-01 21:03:00,66.6,66.6,29.75,SSE,167,0.0,9.0,100,0.27,,,0.73,meteohub,2013-06-02 01:03:00,
2013-06-01 21:08:00,66.6,66.6,29.74,SSE,153,7.0,9.0,100,0.27,,,0.73,meteohub,2013-06-02 01:08:00,
2013-06-01 21:13:00,66.6,66.6,29.73,SSE,150,9.0,10.0,100,0.27,,,0.73,meteohub,2013-06-02 01:13:00,
2013-06-01 21:18:00,66.7,66.7,29.73,SSE,151,10.0,10.0,100,0.25,,,0.73,meteohub,2013-06-02 01:18:00,
2013-06-01 21:23:00,66.7,66.7,29.73,SSE,147,7.0,10.0,100,0.16,,,0.73,meteohub,2013-06-02 01:23:00,
2013-06-01 21:29:00,66.9,66.9,29.73,SE,143,11.0,12.0,100,0.07,,,0.73,meteohub,2013-06-02 01:29:00,
2013-06-01 21:34:00,66.9,66.9,29.73,South,169,4.0,12.0,100,0.03,,,0.73,meteohub,2013-06-02 01:34:00,
2013-06-01 21:39:00,67.1,67.1,29.73,SSE,154,9.0,12.0,100,0.05,,,0.75,meteohub,2013-06-02 01:39:00,
2013-06-01 21:44:00,67.3,67.3,29.73,SSE,152,5.0,12.0,100,0.05,,,0.75,meteohub,2013-06-02 01:44:00,
2013-06-01 21:49:00,67.3,67.3,29.72,SE,134,4.0,12.0,100,0.04,,,0.75,meteohub,2013-06-02 01:49:00,
2013-06-01 21:54:00,67.3,67.3,29.73,SE,136,3.0,11.0,100,0.04,,,0.76,meteohub,2013-06-02 01:54:00,
2013-06-01 21:59:00,67.3,67.3,29.74,West,281,10.0,10.0,100,0.05,,,0.77,meteohub,2013-06-02 01:59:00,
2013-06-01 22:04:00,66.9,66.9,29.73,WNW,282,0.0,10.0,100,0.08,,,0.81,meteohub,2013-06-02 02:04:00,
2013-06-01 22:09:00,66.7,66.7,29.74,West,281,4.0,12.0,100,0.17,,,0.90,meteohub,2013-06-02 02:09:00,
2013-06-01 22:14:00,66.6,66.6,29.73,SE,144,9.0,12.0,100,0.17,,,0.90,meteohub,2013-06-02 02:14:00,
2013-06-01 22:19:00,66.2,66.2,29.73,SE,130,7.0,10.0,100,0.23,,,0.96,meteohub,2013-06-02 02:19:00,
2013-06-01 22:24:00,66.2,66.2,29.72,ESE,115,6.0,11.0,100,0.26,,,0.99,meteohub,2013-06-02 02:24:00,
2013-06-01 22:29:00,66.2,66.2,29.72,SE,127,2.0,11.0,100,0.26,,,0.99,meteohub,2013-06-02 02:29:00,
2013-06-01 22:35:00,66.4,66.4,29.72,SE,143,6.0,11.0,100,0.25,,,0.99,meteohub,2013-06-02 02:35:00,
2013-06-01 22:40:00,66.4,66.4,29.72,SE,145,6.0,9.0,100,0.24,,,0.99,meteohub,2013-06-02 02:40:00,
2013-06-01 22:45:00,66.4,66.4,29.74,West,273,5.0,10.0,100,0.24,,,0.99,meteohub,2013-06-02 02:45:00,
2013-06-01 22:50:00,66.4,66.4,29.73,South,190,2.0,10.0,100,0.24,,,1.10,meteohub,2013-06-02 02:50:00,
2013-06-01 22:55:00,66.2,66.2,29.72,South,190,0.0,11.0,100,0.33,,,1.10,meteohub,2013-06-02 02:55:00,
2013-06-01 23:00:00,66.0,66.0,29.71,South,188,7.0,10.0,100,0.22,,,1.10,meteohub,2013-06-02 03:00:00,
2013-06-01 23:05:00,66.0,66.0,29.71,South,184,4.0,7.0,100,0.20,,,1.10,meteohub,2013-06-02 03:05:00,
2013-06-01 23:10:00,66.0,66.0,29.71,South,184,0.0,7.0,100,0.20,,,1.11,meteohub,2013-06-02 03:10:00,
2013-06-01 23:15:00,66.4,66.4,29.70,South,184,0.0,7.0,100,0.13,,,1.11,meteohub,2013-06-02 03:15:00,
2013-06-01 23:20:00,66.4,66.4,29.71,South,184,0.0,5.0,100,0.12,,,1.11,meteohub,2013-06-02 03:20:00,
2013-06-01 23:25:00,66.4,66.4,29.71,South,184,0.0,0.0,100,0.12,,,1.11,meteohub,2013-06-02 03:25:00,
2013-06-01 23:30:00,66.4,66.4,29.70,South,184,0.0,0.0,100,0.12,,,1.11,meteohub,2013-06-02 03:30:00,
2013-06-01 23:35:00,66.4,66.4,29.70,South,184,0.0,0.0,100,0.12,,,1.11,meteohub,2013-06-02 03:35:00,
2013-06-01 23:40:00,66.6,66.6,29.70,South,184,0.0,0.0,100,0.12,,,1.11,meteohub,2013-06-02 03:40:00,
2013-06-01 23:45:00,66.6,66.6,29.69,South,184,5.0,0.0,100,0.12,,,1.11,meteohub,2013-06-02 03:45:00,
2013-06-01 23:50:00,66.6,66.6,29.70,North,350,1.0,10.0,100,0.08,,,1.18,meteohub,2013-06-02 03:50:00,
2013-06-01 23:55:00,66.6,66.6,29.71,South,186,4.0,10.0,100,0.12,,,1.22,meteohub,2013-06-02 03:55:00,